User: anonymous   Login
Location: Unspecified
(0.0000°N, 0.0000°E)
Time: 05:29:46
(UTC+00:00)
Language:

FALCON 9 R/B - Orbit

View from above orbital plane
View from above orbital plane
View from above satellite
View from above satellite

Ground track
Ground track

The orbit data is extracted from the following two-line orbital elements,

1 37253U 10066K   16212.74558081  .00001325  00000-0  12098-3 0  9997
2 37253  34.5318 109.6157 4293291 227.1128  87.8678  6.87300565138431
Epoch (UTC): 30 July 2016 17:53:38
Eccentricity: 0.4293291
inclination: 34.5318°
perigee height: 290 km
apogee height: 10324 km
right ascension of ascending node: 109.6157°
argument of perigee: 227.1128°
revolutions per day: 6.87300565
mean anomaly at epoch: 87.8678°
orbit number at epoch: 13843

The dashed part of the orbit path shows where the satellite is in the earth's shadow,  

DLR